Year,Month,Day,Hour,Minute,Value (Times are PST for temperature in C)
2018,07,13,00,00,20.40
2018,07,13,00,01,20.50
2018,07,13,00,02,20.50
2018,07,13,00,03,20.60
2018,07,13,00,04,20.70
2018,07,13,00,05,20.80
2018,07,13,00,06,20.80
2018,07,13,00,07,20.80
2018,07,13,00,08,20.80
2018,07,13,00,09,20.80
2018,07,13,00,10,20.80
2018,07,13,00,11,20.80
2018,07,13,00,12,20.80
2018,07,13,00,13,20.80
2018,07,13,00,14,20.80
2018,07,13,00,15,20.80
2018,07,13,00,16,20.80
2018,07,13,00,17,20.80
2018,07,13,00,18,20.70
2018,07,13,00,19,20.70
2018,07,13,00,20,20.70
2018,07,13,00,21,20.60
2018,07,13,00,22,20.60
2018,07,13,00,23,20.60
2018,07,13,00,24,20.60
2018,07,13,00,25,20.60
2018,07,13,00,26,20.60
2018,07,13,00,27,20.50
2018,07,13,00,28,20.50
2018,07,13,00,29,20.60
2018,07,13,00,30,20.60
2018,07,13,00,31,20.60
2018,07,13,00,32,20.60
2018,07,13,00,33,20.60
2018,07,13,00,34,20.60
2018,07,13,00,35,20.60
2018,07,13,00,36,20.60
2018,07,13,00,37,20.60
2018,07,13,00,38,20.60
2018,07,13,00,39,20.60
2018,07,13,00,40,20.60
2018,07,13,00,41,20.70
2018,07,13,00,42,20.70
2018,07,13,00,43,20.70
2018,07,13,00,44,20.60
2018,07,13,00,45,20.60
2018,07,13,00,46,20.60
2018,07,13,00,47,20.60
2018,07,13,00,48,20.60
2018,07,13,00,49,20.50
2018,07,13,00,50,20.50
2018,07,13,00,51,20.50
2018,07,13,00,52,20.50
2018,07,13,00,53,20.50
2018,07,13,00,54,20.50
2018,07,13,00,55,20.50
2018,07,13,00,56,20.40
2018,07,13,00,57,20.40
2018,07,13,00,58,20.40
2018,07,13,00,59,20.40
2018,07,13,01,00,20.40
2018,07,13,01,01,20.40
2018,07,13,01,02,20.40
2018,07,13,01,03,20.40
2018,07,13,01,04,20.40
2018,07,13,01,05,20.40
2018,07,13,01,06,20.40
2018,07,13,01,07,20.40
2018,07,13,01,08,20.40
2018,07,13,01,09,20.40
2018,07,13,01,10,20.40
2018,07,13,01,11,20.40
2018,07,13,01,12,20.40
2018,07,13,01,13,20.30
2018,07,13,01,14,20.30
2018,07,13,01,15,20.30
2018,07,13,01,16,20.30
2018,07,13,01,17,20.30
2018,07,13,01,18,20.40
2018,07,13,01,19,20.40
2018,07,13,01,20,20.40
2018,07,13,01,21,20.40
2018,07,13,01,22,20.40
2018,07,13,01,23,20.40
2018,07,13,01,24,20.40
2018,07,13,01,25,20.40
2018,07,13,01,26,20.40
2018,07,13,01,27,20.40
2018,07,13,01,28,20.40
2018,07,13,01,29,20.40
2018,07,13,01,30,20.40
2018,07,13,01,31,20.40
2018,07,13,01,32,20.40
2018,07,13,01,33,20.40
2018,07,13,01,34,20.30
2018,07,13,01,35,20.30
2018,07,13,01,36,20.30
2018,07,13,01,37,20.30
2018,07,13,01,38,20.30
2018,07,13,01,39,20.30
2018,07,13,01,40,20.20
2018,07,13,01,41,20.20
2018,07,13,01,42,20.20
2018,07,13,01,43,20.20
2018,07,13,01,44,20.30
2018,07,13,01,45,20.30
2018,07,13,01,46,20.30
2018,07,13,01,47,20.30
2018,07,13,01,48,20.30
2018,07,13,01,49,20.30
2018,07,13,01,50,20.30
2018,07,13,01,51,20.30
2018,07,13,01,52,20.30
2018,07,13,01,53,20.30
2018,07,13,01,54,20.30
2018,07,13,01,55,20.30
2018,07,13,01,56,20.30
2018,07,13,01,57,20.30
2018,07,13,01,58,20.30
2018,07,13,01,59,20.30
2018,07,13,02,00,20.30
2018,07,13,02,01,20.30
2018,07,13,02,02,20.30
2018,07,13,02,03,20.30
2018,07,13,02,04,20.30
2018,07,13,02,05,20.30
2018,07,13,02,06,20.30
2018,07,13,02,07,20.30
2018,07,13,02,08,20.30
2018,07,13,02,09,20.30
2018,07,13,02,10,20.30
2018,07,13,02,11,20.20
2018,07,13,02,12,20.20
2018,07,13,02,13,20.20
2018,07,13,02,14,20.20
2018,07,13,02,15,20.20
2018,07,13,02,16,20.20
2018,07,13,02,17,20.20
2018,07,13,02,18,20.10
2018,07,13,02,19,20.10
2018,07,13,02,20,20.10
2018,07,13,02,21,20.10
2018,07,13,02,22,20.10
2018,07,13,02,23,20.10
2018,07,13,02,24,20.10
2018,07,13,02,25,20.10
2018,07,13,02,26,20.10
2018,07,13,02,27,20.10
2018,07,13,02,28,20.10
2018,07,13,02,29,20.00
2018,07,13,02,30,20.00
2018,07,13,02,31,20.00
2018,07,13,02,32,20.00
2018,07,13,02,33,20.00
2018,07,13,02,34,20.00
2018,07,13,02,35,20.00
2018,07,13,02,36,19.90
2018,07,13,02,37,19.90
2018,07,13,02,38,19.90
2018,07,13,02,39,19.90
2018,07,13,02,40,19.90
2018,07,13,02,41,19.90
2018,07,13,02,42,19.90
2018,07,13,02,43,19.90
2018,07,13,02,44,19.80
2018,07,13,02,45,19.80
2018,07,13,02,46,19.80
2018,07,13,02,47,19.80
2018,07,13,02,48,19.90
2018,07,13,02,49,19.90
2018,07,13,02,50,19.90
2018,07,13,02,51,19.90
2018,07,13,02,52,19.90
2018,07,13,02,53,19.90
2018,07,13,02,54,20.00
2018,07,13,02,55,20.00
2018,07,13,02,56,20.10
2018,07,13,02,57,20.10
2018,07,13,02,58,20.10
2018,07,13,02,59,20.10
2018,07,13,03,00,20.00
2018,07,13,03,01,20.00
2018,07,13,03,02,20.10
2018,07,13,03,03,20.10
2018,07,13,03,04,20.10
2018,07,13,03,05,20.10
2018,07,13,03,06,20.10
2018,07,13,03,07,20.10
2018,07,13,03,08,20.10
2018,07,13,03,09,20.10
2018,07,13,03,10,20.10
2018,07,13,03,11,20.10
2018,07,13,03,12,20.00
2018,07,13,03,13,20.00
2018,07,13,03,14,19.90
2018,07,13,03,15,19.90
2018,07,13,03,16,19.90
2018,07,13,03,17,19.90
2018,07,13,03,18,19.90
2018,07,13,03,19,19.80
2018,07,13,03,20,19.80
2018,07,13,03,21,19.80
2018,07,13,03,22,19.70
2018,07,13,03,23,19.70
2018,07,13,03,24,19.70
2018,07,13,03,25,19.60
2018,07,13,03,26,19.60
2018,07,13,03,27,19.60
2018,07,13,03,28,19.60
2018,07,13,03,29,19.60
2018,07,13,03,30,19.60
2018,07,13,03,31,19.60
2018,07,13,03,32,19.60
2018,07,13,03,33,19.50
2018,07,13,03,34,19.60
2018,07,13,03,35,19.60
2018,07,13,03,36,19.60
2018,07,13,03,37,19.60
2018,07,13,03,38,19.60
2018,07,13,03,39,19.60
2018,07,13,03,40,19.60
2018,07,13,03,41,19.60
2018,07,13,03,42,19.60
2018,07,13,03,43,19.60
2018,07,13,03,44,19.60
2018,07,13,03,45,19.60
2018,07,13,03,46,19.60
2018,07,13,03,47,19.60
2018,07,13,03,48,19.50
2018,07,13,03,49,19.50
2018,07,13,03,50,19.40
2018,07,13,03,51,19.40
2018,07,13,03,52,19.40
2018,07,13,03,53,19.40
2018,07,13,03,54,19.40
2018,07,13,03,55,19.40
2018,07,13,03,56,19.40
2018,07,13,03,57,19.40
2018,07,13,03,58,19.40
2018,07,13,03,59,19.40
2018,07,13,04,00,19.40
2018,07,13,04,01,19.40
2018,07,13,04,02,19.40
2018,07,13,04,03,19.40
2018,07,13,04,04,19.40
2018,07,13,04,05,19.40
2018,07,13,04,06,19.40
2018,07,13,04,07,19.50
2018,07,13,04,08,19.50
2018,07,13,04,09,19.50
2018,07,13,04,10,19.50
2018,07,13,04,11,19.50
2018,07,13,04,12,19.50
2018,07,13,04,13,19.60
2018,07,13,04,14,19.60
2018,07,13,04,15,19.60
2018,07,13,04,16,19.60
2018,07,13,04,17,19.60
2018,07,13,04,18,19.60
2018,07,13,04,19,19.60
2018,07,13,04,20,19.60
2018,07,13,04,21,19.60
2018,07,13,04,22,19.60
2018,07,13,04,23,19.60
2018,07,13,04,24,19.60
2018,07,13,04,25,19.60
2018,07,13,04,26,19.60
2018,07,13,04,27,19.60
2018,07,13,04,28,19.60
2018,07,13,04,29,19.60
2018,07,13,04,30,19.60
2018,07,13,04,31,19.50
2018,07,13,04,32,19.50
2018,07,13,04,33,19.50
2018,07,13,04,34,19.40
2018,07,13,04,35,19.40
2018,07,13,04,36,19.40
2018,07,13,04,37,19.40
2018,07,13,04,38,19.30
2018,07,13,04,39,19.30
2018,07,13,04,40,19.30
2018,07,13,04,41,19.30
2018,07,13,04,42,19.20
2018,07,13,04,43,19.20
2018,07,13,04,44,19.20
2018,07,13,04,45,19.20
2018,07,13,04,46,19.20
2018,07,13,04,47,19.20
2018,07,13,04,48,19.20
2018,07,13,04,49,19.20
2018,07,13,04,50,19.10
2018,07,13,04,51,19.10
2018,07,13,04,52,19.10
2018,07,13,04,53,19.10
2018,07,13,04,54,19.00
2018,07,13,04,55,19.00
2018,07,13,04,56,18.90
2018,07,13,04,57,18.90
2018,07,13,04,58,18.90
2018,07,13,04,59,18.90
2018,07,13,05,00,18.90
2018,07,13,05,01,18.90
2018,07,13,05,02,18.90
2018,07,13,05,03,18.90
2018,07,13,05,04,18.90
2018,07,13,05,05,18.90
2018,07,13,05,06,18.90
2018,07,13,05,07,18.90
2018,07,13,05,08,18.80
2018,07,13,05,09,18.90
2018,07,13,05,10,18.90
2018,07,13,05,11,18.90
2018,07,13,05,12,18.80
2018,07,13,05,13,18.80
2018,07,13,05,14,18.80
2018,07,13,05,15,18.80
2018,07,13,05,16,18.70
2018,07,13,05,17,18.70
2018,07,13,05,18,18.70
2018,07,13,05,19,18.70
2018,07,13,05,20,18.70
2018,07,13,05,21,18.70
2018,07,13,05,22,18.70
2018,07,13,05,23,18.70
2018,07,13,05,24,18.80
2018,07,13,05,25,18.80
2018,07,13,05,26,18.80
2018,07,13,05,27,18.80
2018,07,13,05,28,18.80
2018,07,13,05,29,18.80
2018,07,13,05,30,18.80
2018,07,13,05,31,18.80
2018,07,13,05,32,18.90
2018,07,13,05,33,18.90
2018,07,13,05,34,18.90
2018,07,13,05,35,18.90
2018,07,13,05,36,18.90
2018,07,13,05,37,18.90
2018,07,13,05,38,18.90
2018,07,13,05,39,18.90
2018,07,13,05,40,18.90
2018,07,13,05,41,18.90
2018,07,13,05,42,18.90
2018,07,13,05,43,18.90
2018,07,13,05,44,18.90
2018,07,13,05,45,18.90
2018,07,13,05,46,18.90
2018,07,13,05,47,18.80
2018,07,13,05,48,18.80
2018,07,13,05,49,18.80
2018,07,13,05,50,18.80
2018,07,13,05,51,18.80
2018,07,13,05,52,18.80
2018,07,13,05,53,18.70
2018,07,13,05,54,18.70
2018,07,13,05,55,18.70
2018,07,13,05,56,18.70
2018,07,13,05,57,18.60
2018,07,13,05,58,18.60
2018,07,13,05,59,18.60
2018,07,13,06,00,18.50
2018,07,13,06,01,18.40
2018,07,13,06,02,18.40
2018,07,13,06,03,18.40
2018,07,13,06,04,18.40
2018,07,13,06,05,18.40
2018,07,13,06,06,18.40
2018,07,13,06,07,18.40
2018,07,13,06,08,18.40
2018,07,13,06,09,18.40
2018,07,13,06,10,18.40
2018,07,13,06,11,18.40
2018,07,13,06,12,18.40
2018,07,13,06,13,18.40
2018,07,13,06,14,18.40
2018,07,13,06,15,18.40
2018,07,13,06,16,18.40
2018,07,13,06,17,18.50
2018,07,13,06,18,18.50
2018,07,13,06,19,18.50
2018,07,13,06,20,18.50
2018,07,13,06,21,18.60
2018,07,13,06,22,18.60
2018,07,13,06,23,18.60
2018,07,13,06,24,18.60
2018,07,13,06,25,18.60
2018,07,13,06,26,18.60
2018,07,13,06,27,18.60
2018,07,13,06,28,18.70
2018,07,13,06,29,18.70
2018,07,13,06,30,18.70
2018,07,13,06,31,18.70
2018,07,13,06,32,18.70
2018,07,13,06,33,18.80
2018,07,13,06,34,18.80
2018,07,13,06,35,18.80
2018,07,13,06,36,18.80
2018,07,13,06,37,18.80
2018,07,13,06,38,18.80
2018,07,13,06,39,18.70
2018,07,13,06,40,18.80
2018,07,13,06,41,18.80
2018,07,13,06,42,18.70
2018,07,13,06,43,18.70
2018,07,13,06,44,18.70
2018,07,13,06,45,18.70
2018,07,13,06,46,18.70
2018,07,13,06,47,18.70
2018,07,13,06,48,18.70
2018,07,13,06,49,18.70
2018,07,13,06,50,18.70
2018,07,13,06,51,18.70
2018,07,13,06,52,18.70
2018,07,13,06,53,18.80
2018,07,13,06,54,18.80
2018,07,13,06,55,18.80
2018,07,13,06,56,18.90
2018,07,13,06,57,18.90
2018,07,13,06,58,18.90
2018,07,13,06,59,18.90
2018,07,13,07,00,18.90
2018,07,13,07,01,19.00
2018,07,13,07,02,19.00
2018,07,13,07,03,19.10
2018,07,13,07,04,19.10
2018,07,13,07,05,19.10
2018,07,13,07,06,19.10
2018,07,13,07,07,19.20
2018,07,13,07,08,19.20
2018,07,13,07,09,19.20
2018,07,13,07,10,19.20
2018,07,13,07,11,19.30
2018,07,13,07,12,19.30
2018,07,13,07,13,19.30
2018,07,13,07,14,19.30
2018,07,13,07,15,19.30
2018,07,13,07,16,19.30
2018,07,13,07,17,19.40
2018,07,13,07,18,19.40
2018,07,13,07,19,19.40
2018,07,13,07,20,19.40
2018,07,13,07,21,19.40
2018,07,13,07,22,19.40
2018,07,13,07,23,19.40
2018,07,13,07,24,19.40
2018,07,13,07,25,19.40
2018,07,13,07,26,19.40
2018,07,13,07,27,19.40
2018,07,13,07,28,19.40
2018,07,13,07,29,19.40
2018,07,13,07,30,19.40
2018,07,13,07,31,19.40
2018,07,13,07,32,19.40
2018,07,13,07,33,19.40
2018,07,13,07,34,19.40
2018,07,13,07,35,19.40
2018,07,13,07,36,19.40
2018,07,13,07,37,19.40
2018,07,13,07,38,19.40
2018,07,13,07,39,19.40
2018,07,13,07,40,19.40
2018,07,13,07,41,19.40
2018,07,13,07,42,19.40
2018,07,13,07,43,19.40
2018,07,13,07,44,19.40
2018,07,13,07,45,19.40
2018,07,13,07,46,19.50
2018,07,13,07,47,19.50
2018,07,13,07,48,19.60
2018,07,13,07,49,19.60
2018,07,13,07,50,19.60
2018,07,13,07,51,19.70
2018,07,13,07,52,19.70
2018,07,13,07,53,19.70
2018,07,13,07,54,19.70
2018,07,13,07,55,19.70
2018,07,13,07,56,19.70
2018,07,13,07,57,19.70
2018,07,13,07,58,19.70
2018,07,13,07,59,19.70
2018,07,13,08,00,19.80
2018,07,13,08,01,19.80
2018,07,13,08,02,19.80
2018,07,13,08,03,19.90
2018,07,13,08,04,19.90
2018,07,13,08,05,19.90
2018,07,13,08,06,20.00
2018,07,13,08,07,20.00
2018,07,13,08,08,20.00
2018,07,13,08,09,20.10
2018,07,13,08,10,20.10
2018,07,13,08,11,20.10
2018,07,13,08,12,20.10
2018,07,13,08,13,20.20
2018,07,13,08,14,20.20
2018,07,13,08,15,20.20
2018,07,13,08,16,20.30
2018,07,13,08,17,20.30
2018,07,13,08,18,20.30
2018,07,13,08,19,20.30
2018,07,13,08,20,20.30
2018,07,13,08,21,20.40
2018,07,13,08,22,20.40
2018,07,13,08,23,20.50
2018,07,13,08,24,20.50
2018,07,13,08,25,20.60
2018,07,13,08,26,20.60
2018,07,13,08,27,20.60
2018,07,13,08,28,20.50
2018,07,13,08,29,20.50
2018,07,13,08,30,20.50
2018,07,13,08,31,20.50
2018,07,13,08,32,20.50
2018,07,13,08,33,20.50
2018,07,13,08,34,20.50
2018,07,13,08,35,20.40
2018,07,13,08,36,20.40
2018,07,13,08,37,20.40
2018,07,13,08,38,20.50
2018,07,13,08,39,20.50
2018,07,13,08,40,20.50
2018,07,13,08,41,20.50
2018,07,13,08,42,20.50
2018,07,13,08,43,20.60
2018,07,13,08,44,20.60
2018,07,13,08,45,20.60
2018,07,13,08,46,20.70
2018,07,13,08,47,20.70
2018,07,13,08,48,20.80
2018,07,13,08,49,20.80
2018,07,13,08,50,20.90
2018,07,13,08,51,20.80
2018,07,13,08,52,20.90
2018,07,13,08,53,20.90
2018,07,13,08,54,20.90
2018,07,13,08,55,20.90
2018,07,13,08,56,20.90
2018,07,13,08,57,21.00
2018,07,13,08,58,21.10
2018,07,13,08,59,21.10
2018,07,13,09,00,21.10
2018,07,13,09,01,21.20
2018,07,13,09,02,21.20
2018,07,13,09,03,21.20
2018,07,13,09,04,21.30
2018,07,13,09,05,21.30
2018,07,13,09,06,21.40
2018,07,13,09,07,21.50
2018,07,13,09,08,21.50
2018,07,13,09,09,21.60
2018,07,13,09,10,21.60
2018,07,13,09,11,21.70
2018,07,13,09,12,21.70
2018,07,13,09,13,21.70
2018,07,13,09,14,21.70
2018,07,13,09,15,21.70
2018,07,13,09,16,21.70
2018,07,13,09,17,21.80
2018,07,13,09,18,21.80
2018,07,13,09,19,21.80
2018,07,13,09,20,21.80
2018,07,13,09,21,21.80
2018,07,13,09,22,21.80
2018,07,13,09,23,21.70
2018,07,13,09,24,21.70
2018,07,13,09,25,21.70
2018,07,13,09,26,21.80
2018,07,13,09,27,21.80
2018,07,13,09,28,21.80
2018,07,13,09,29,21.80
2018,07,13,09,30,21.90
2018,07,13,09,31,21.90
2018,07,13,09,32,21.90
2018,07,13,09,33,22.00
2018,07,13,09,34,22.00
2018,07,13,09,35,22.00
2018,07,13,09,36,22.00
2018,07,13,09,37,22.10
2018,07,13,09,38,22.10
2018,07,13,09,39,22.20
2018,07,13,09,40,22.20
2018,07,13,09,41,22.20
2018,07,13,09,42,22.20
2018,07,13,09,43,22.20
2018,07,13,09,44,22.20
2018,07,13,09,45,22.20
2018,07,13,09,46,22.20
2018,07,13,09,47,22.10
2018,07,13,09,48,22.10
2018,07,13,09,49,22.10
2018,07,13,09,50,22.10
2018,07,13,09,51,22.10
2018,07,13,09,52,22.20
2018,07,13,09,53,22.30
2018,07,13,09,54,22.30
2018,07,13,09,55,22.30
2018,07,13,09,56,22.30
2018,07,13,09,57,22.40
2018,07,13,09,58,22.40
2018,07,13,09,59,22.40
2018,07,13,10,00,22.40
2018,07,13,10,01,22.40
2018,07,13,10,02,22.40
2018,07,13,10,03,22.40
2018,07,13,10,04,22.30
2018,07,13,10,05,22.30
2018,07,13,10,06,22.30
2018,07,13,10,07,22.30
2018,07,13,10,08,22.30
2018,07,13,10,09,22.30
2018,07,13,10,10,22.30
2018,07,13,10,11,22.30
2018,07,13,10,12,22.20
2018,07,13,10,13,22.20
2018,07,13,10,14,22.20
2018,07,13,10,15,22.20
2018,07,13,10,16,22.20
2018,07,13,10,17,22.20
2018,07,13,10,18,22.20
2018,07,13,10,19,22.10
2018,07,13,10,20,22.20
2018,07,13,10,21,22.20
2018,07,13,10,22,22.30
2018,07,13,10,23,22.30
2018,07,13,10,24,22.40
2018,07,13,10,25,22.50
2018,07,13,10,26,22.50
2018,07,13,10,27,22.50
2018,07,13,10,28,22.50
2018,07,13,10,29,22.50
2018,07,13,10,30,22.60
2018,07,13,10,31,22.70
2018,07,13,10,32,22.70
2018,07,13,10,33,22.80
2018,07,13,10,34,22.80
2018,07,13,10,35,22.90
2018,07,13,10,36,22.80
2018,07,13,10,37,22.90
2018,07,13,10,38,22.80
2018,07,13,10,39,22.70
2018,07,13,10,40,22.70
2018,07,13,10,41,22.60
2018,07,13,10,42,22.60
2018,07,13,10,43,22.60
2018,07,13,10,44,22.70
2018,07,13,10,45,22.70
2018,07,13,10,46,22.80
2018,07,13,10,47,22.80
2018,07,13,10,48,22.80
2018,07,13,10,49,22.90
2018,07,13,10,50,22.90
2018,07,13,10,51,23.00
2018,07,13,10,52,23.00
2018,07,13,10,53,23.00
2018,07,13,10,54,23.00
2018,07,13,10,55,23.10
2018,07,13,10,56,23.10
2018,07,13,10,57,23.10
2018,07,13,10,58,23.10
2018,07,13,10,59,23.20
2018,07,13,11,00,23.20
2018,07,13,11,01,23.20
2018,07,13,11,02,23.30
2018,07,13,11,03,23.20
2018,07,13,11,04,23.20
2018,07,13,11,05,23.20
2018,07,13,11,06,23.20
2018,07,13,11,07,23.20
2018,07,13,11,08,23.20
2018,07,13,11,09,23.20
2018,07,13,11,10,23.20
2018,07,13,11,11,23.30
2018,07,13,11,12,23.30
2018,07,13,11,13,23.30
2018,07,13,11,14,23.30
2018,07,13,11,15,23.20
2018,07,13,11,16,23.30
2018,07,13,11,17,23.30
2018,07,13,11,18,23.30
2018,07,13,11,19,23.30
2018,07,13,11,20,23.30
2018,07,13,11,21,23.40
2018,07,13,11,22,23.50
2018,07,13,11,23,23.50
2018,07,13,11,24,23.50
2018,07,13,11,25,23.50
2018,07,13,11,26,23.40
2018,07,13,11,27,23.40
2018,07,13,11,28,23.30
2018,07,13,11,29,23.30
2018,07,13,11,30,23.30
2018,07,13,11,31,23.40
2018,07,13,11,32,23.40
2018,07,13,11,33,23.50
2018,07,13,11,34,23.60
2018,07,13,11,35,23.60
2018,07,13,11,36,23.60
2018,07,13,11,37,23.60
2018,07,13,11,38,23.60
2018,07,13,11,39,23.60
2018,07,13,11,40,23.50
2018,07,13,11,41,23.60
2018,07,13,11,42,23.60
2018,07,13,11,43,23.70
2018,07,13,11,44,23.70
2018,07,13,11,45,23.80
2018,07,13,11,46,23.80
2018,07,13,11,47,23.90
2018,07,13,11,48,24.00
2018,07,13,11,49,24.00
2018,07,13,11,50,24.00
2018,07,13,11,51,24.00
2018,07,13,11,52,24.00
2018,07,13,11,53,24.00
2018,07,13,11,54,23.90
2018,07,13,11,55,23.90
2018,07,13,11,56,23.90
2018,07,13,11,57,23.90
2018,07,13,11,58,24.00
2018,07,13,11,59,24.00
2018,07,13,12,00,24.10
2018,07,13,12,01,24.10
2018,07,13,12,02,24.10
2018,07,13,12,03,24.10
2018,07,13,12,04,24.10
2018,07,13,12,05,24.10
2018,07,13,12,06,24.10
2018,07,13,12,07,24.20
2018,07,13,12,08,24.30
2018,07,13,12,09,24.40
2018,07,13,12,10,24.40
2018,07,13,12,11,24.40
2018,07,13,12,12,24.40
2018,07,13,12,13,24.40
2018,07,13,12,14,24.40
2018,07,13,12,15,24.40
2018,07,13,12,16,24.50
2018,07,13,12,17,24.60
2018,07,13,12,18,24.70
2018,07,13,12,19,24.70
2018,07,13,12,20,24.80
2018,07,13,12,21,24.80
2018,07,13,12,22,24.80
2018,07,13,12,23,24.80
2018,07,13,12,24,24.80
2018,07,13,12,25,24.80
2018,07,13,12,26,24.90
2018,07,13,12,27,24.90
2018,07,13,12,28,24.90
2018,07,13,12,29,24.90
2018,07,13,12,30,24.90
2018,07,13,12,31,24.90
2018,07,13,12,32,25.00
2018,07,13,12,33,25.00
2018,07,13,12,34,25.10
2018,07,13,12,35,25.10
2018,07,13,12,36,25.10
2018,07,13,12,37,25.10
2018,07,13,12,38,25.10
2018,07,13,12,39,25.00
2018,07,13,12,40,25.00
2018,07,13,12,41,24.90
2018,07,13,12,42,24.90
2018,07,13,12,43,24.90
2018,07,13,12,44,24.90
2018,07,13,12,45,24.90
2018,07,13,12,46,24.90
2018,07,13,12,47,24.80
2018,07,13,12,48,24.80
2018,07,13,12,49,24.90
2018,07,13,12,50,24.90
2018,07,13,12,51,24.90
2018,07,13,12,52,24.80
2018,07,13,12,53,24.80
2018,07,13,12,54,24.80
2018,07,13,12,55,24.90
2018,07,13,12,56,25.00
2018,07,13,12,57,25.00
2018,07,13,12,58,25.00
2018,07,13,12,59,25.00
2018,07,13,13,00,25.10
2018,07,13,13,01,25.10
2018,07,13,13,02,25.20
2018,07,13,13,03,25.20
2018,07,13,13,04,25.20
2018,07,13,13,05,25.30
2018,07,13,13,06,25.30
2018,07,13,13,07,25.40
2018,07,13,13,08,25.40
2018,07,13,13,09,25.50
2018,07,13,13,10,25.50
2018,07,13,13,11,25.40
2018,07,13,13,12,25.40
2018,07,13,13,13,25.30
2018,07,13,13,14,25.30
2018,07,13,13,15,25.20
2018,07,13,13,16,25.10
2018,07,13,13,17,25.10
2018,07,13,13,18,25.20
2018,07,13,13,19,25.30
2018,07,13,13,20,25.40
2018,07,13,13,21,25.40
2018,07,13,13,22,25.50
2018,07,13,13,23,25.50
2018,07,13,13,24,25.50
2018,07,13,13,25,25.60
2018,07,13,13,26,25.70
2018,07,13,13,27,25.60
2018,07,13,13,28,25.60
2018,07,13,13,29,25.70
2018,07,13,13,30,25.70
2018,07,13,13,31,25.80
2018,07,13,13,32,25.80
2018,07,13,13,33,25.90
2018,07,13,13,34,26.10
2018,07,13,13,35,26.20
2018,07,13,13,36,26.20
2018,07,13,13,37,26.10
2018,07,13,13,38,26.00
2018,07,13,13,39,25.80
2018,07,13,13,40,25.70
2018,07,13,13,41,25.50
2018,07,13,13,42,25.50
2018,07,13,13,43,25.50
2018,07,13,13,44,25.50
2018,07,13,13,45,25.60
2018,07,13,13,46,25.60
2018,07,13,13,47,25.60
2018,07,13,13,48,25.60
2018,07,13,13,49,25.60
2018,07,13,13,50,25.60
2018,07,13,13,51,25.60
2018,07,13,13,52,25.50
2018,07,13,13,53,25.40
2018,07,13,13,54,25.40
2018,07,13,13,55,25.40
2018,07,13,13,56,25.40
2018,07,13,13,57,25.50
2018,07,13,13,58,25.50
2018,07,13,13,59,25.60
2018,07,13,14,00,25.70
2018,07,13,14,01,25.60
2018,07,13,14,02,25.60
2018,07,13,14,03,25.60
2018,07,13,14,04,25.70
2018,07,13,14,05,25.70
2018,07,13,14,06,25.70
2018,07,13,14,07,25.70
2018,07,13,14,08,25.80
2018,07,13,14,09,25.70
2018,07,13,14,10,25.70
2018,07,13,14,11,25.70
2018,07,13,14,12,25.80
2018,07,13,14,13,25.80
2018,07,13,14,14,25.90
2018,07,13,14,15,25.90
2018,07,13,14,16,25.90
2018,07,13,14,17,26.00
2018,07,13,14,18,26.00
2018,07,13,14,19,26.00
2018,07,13,14,20,26.00
2018,07,13,14,21,25.90
2018,07,13,14,22,25.80
2018,07,13,14,23,25.70
2018,07,13,14,24,25.70
2018,07,13,14,25,25.60
2018,07,13,14,26,25.60
2018,07,13,14,27,25.60
2018,07,13,14,28,25.70
2018,07,13,14,29,25.70
2018,07,13,14,30,25.70
2018,07,13,14,31,25.70
2018,07,13,14,32,25.70
2018,07,13,14,33,25.80
2018,07,13,14,34,25.80
2018,07,13,14,35,25.80
2018,07,13,14,36,25.80
2018,07,13,14,37,25.80
2018,07,13,14,38,25.70
2018,07,13,14,39,25.70
2018,07,13,14,40,25.70
2018,07,13,14,41,25.60
2018,07,13,14,42,25.70
2018,07,13,14,43,25.80
2018,07,13,14,44,25.80
2018,07,13,14,45,25.90
2018,07,13,14,46,25.90
2018,07,13,14,47,25.80
2018,07,13,14,48,25.80
2018,07,13,14,49,25.80
2018,07,13,14,50,25.80
2018,07,13,14,51,25.80
2018,07,13,14,52,25.80
2018,07,13,14,53,25.80
2018,07,13,14,54,25.80
2018,07,13,14,55,25.90
2018,07,13,14,56,26.10
2018,07,13,14,57,26.20
2018,07,13,14,58,26.20
2018,07,13,14,59,26.20
2018,07,13,15,00,26.20
2018,07,13,15,01,26.10
2018,07,13,15,02,26.00
2018,07,13,15,03,26.00
2018,07,13,15,04,25.90
2018,07,13,15,05,25.90
2018,07,13,15,06,26.00
2018,07,13,15,07,26.10
2018,07,13,15,08,26.10
2018,07,13,15,09,26.00
2018,07,13,15,10,26.00
2018,07,13,15,11,26.00
2018,07,13,15,12,26.10
2018,07,13,15,13,26.20
2018,07,13,15,14,26.20
2018,07,13,15,15,26.20
2018,07,13,15,16,26.30
2018,07,13,15,17,26.40
2018,07,13,15,18,26.40
2018,07,13,15,19,26.30
2018,07,13,15,20,26.30
2018,07,13,15,21,26.30
2018,07,13,15,22,26.30
2018,07,13,15,23,26.40
2018,07,13,15,24,26.40
2018,07,13,15,25,26.30
2018,07,13,15,26,26.20
2018,07,13,15,27,26.20
2018,07,13,15,28,26.20
2018,07,13,15,29,26.10
2018,07,13,15,30,26.10
2018,07,13,15,31,26.20
2018,07,13,15,32,26.20
2018,07,13,15,33,26.30
2018,07,13,15,34,26.30
2018,07,13,15,35,26.40
2018,07,13,15,36,26.40
2018,07,13,15,37,26.30
2018,07,13,15,38,26.30
2018,07,13,15,39,26.30
2018,07,13,15,40,26.20
2018,07,13,15,41,26.20
2018,07,13,15,42,26.10
2018,07,13,15,43,26.00
2018,07,13,15,44,26.00
2018,07,13,15,45,26.00
2018,07,13,15,46,26.00
2018,07,13,15,47,26.00
2018,07,13,15,48,25.90
2018,07,13,15,49,25.80
2018,07,13,15,50,25.70
2018,07,13,15,51,25.70
2018,07,13,15,52,25.80
2018,07,13,15,53,25.80
2018,07,13,15,54,25.90
2018,07,13,15,55,26.00
2018,07,13,15,56,26.00
2018,07,13,15,57,26.10
2018,07,13,15,58,26.10
2018,07,13,15,59,26.20
2018,07,13,16,00,26.20
2018,07,13,16,01,26.30
2018,07,13,16,02,26.30
2018,07,13,16,03,26.20
2018,07,13,16,04,26.30
2018,07,13,16,05,26.40
2018,07,13,16,06,26.30
2018,07,13,16,07,26.30
2018,07,13,16,08,26.20
2018,07,13,16,09,26.10
2018,07,13,16,10,26.20
2018,07,13,16,11,26.20
2018,07,13,16,12,26.20
2018,07,13,16,13,26.20
2018,07,13,16,14,26.20
2018,07,13,16,15,26.20
2018,07,13,16,16,26.30
2018,07,13,16,17,26.20
2018,07,13,16,18,26.20
2018,07,13,16,19,26.20
2018,07,13,16,20,26.20
2018,07,13,16,21,26.10
2018,07,13,16,22,26.10
2018,07,13,16,23,26.20
2018,07,13,16,24,26.30
2018,07,13,16,25,26.30
2018,07,13,16,26,26.40
2018,07,13,16,27,26.40
2018,07,13,16,28,26.40
2018,07,13,16,29,26.40
2018,07,13,16,30,26.40
2018,07,13,16,31,26.50
2018,07,13,16,32,26.60
2018,07,13,16,33,26.60
2018,07,13,16,34,26.70
2018,07,13,16,35,26.70
2018,07,13,16,36,26.70
2018,07,13,16,37,26.70
2018,07,13,16,38,26.60
2018,07,13,16,39,26.50
2018,07,13,16,40,26.50
2018,07,13,16,41,26.40
2018,07,13,16,42,26.40
2018,07,13,16,43,26.30
2018,07,13,16,44,26.40
2018,07,13,16,45,26.40
2018,07,13,16,46,26.30
2018,07,13,16,47,26.40
2018,07,13,16,48,26.40
2018,07,13,16,49,26.40
2018,07,13,16,50,26.40
2018,07,13,16,51,26.40
2018,07,13,16,52,26.50
2018,07,13,16,53,26.60
2018,07,13,16,54,26.70
2018,07,13,16,55,26.70
2018,07,13,16,56,26.80
2018,07,13,16,57,26.80
2018,07,13,16,58,26.80
2018,07,13,16,59,26.90
2018,07,13,17,00,26.90
2018,07,13,17,01,27.00
2018,07,13,17,02,27.10
2018,07,13,17,03,27.20
2018,07,13,17,04,27.20
2018,07,13,17,05,27.30
2018,07,13,17,06,27.30
2018,07,13,17,07,27.40
2018,07,13,17,08,27.40
2018,07,13,17,09,27.40
2018,07,13,17,10,27.40
2018,07,13,17,11,27.40
2018,07,13,17,12,27.40
2018,07,13,17,13,27.40
2018,07,13,17,14,27.50
2018,07,13,17,15,27.60
2018,07,13,17,16,27.60
2018,07,13,17,17,27.50
2018,07,13,17,18,27.40
2018,07,13,17,19,27.30